Regional Weather Roundup
Issued by NWS

Home | Current Version | Previous Version | Text Only | Print | Product List | Glossary On
Versions: 1 2 3 4 5 6 7 8 9 10 11 12 13 14 15 16 17 18 19 20 21 22 23 24 25 26 27 28 29 30 31 32 33 34 35 36 37 38 39 40 41 42 43 44 45 46 47 48 49 50
000
ASUS44 KLUB 241610
RWRTX
WEST TEXAS WEATHER ROUNDUP
NATIONAL WEATHER SERVICE LUBBOCK TX
1100 AM CDT FRI OCT 24 2014

NOTE: "FAIR" INDICATES FEW OR NO CLOUDS BELOW 12,000 FEET WITH NO
SIGNIFICANT WEATHER AND/OR OBSTRUCTIONS TO VISIBILITY.

TXZ004-006>008-010-012-014-016-OKZ002-241700-
TEXAS PANHANDLE/OKLAHOMA PANHANDLE

CITY           SKY/WX    TMP DP  RH WIND       PRES   REMARKS
AMARILLO       SUNNY     68  54  60 W3        30.18R
BORGER         SUNNY     66  54  65 SW6       30.15R
CANADIAN       CLOUDY    60  59  99 CALM      30.12R FOG
DALHART        SUNNY     71  48  43 W5        30.19S
DUMAS          SUNNY     70  50  49 W6        30.17R
GUYMON         SUNNY     74  53  48 NW3       30.12S
HEREFORD       SUNNY     67  55  63 SW7       30.20R
PAMPA          SUNNY     67  55  64 W7        30.16S
PERRYTON       SUNNY     68  56  65 W5        30.12S
$$

TXZ026-029-035-045-048-241700-
SOUTHERN PANHANDLE/SOUTH PLAINS/ROLLING PLAINS

CITY           SKY/WX    TMP DP  RH WIND       PRES   REMARKS
CHILDRESS      SUNNY     74  58  57 SW9       30.13S
SEMINOLE       SUNNY     69  61  75 SW6       30.23S
LUBBOCK        SUNNY     71  59  65 SW12      30.19S
PLAINVIEW      SUNNY     69  60  74 W9        30.18R
SNYDER         FOG       61  61  99 SW7       30.20S VSB 1/4
$$

TXZ052-054-060>062-072-078-127-140-154-169-241700-
PERMIAN BASIN/CONCHO VALLEY/BIG COUNTRY/EDWARDS PLATEAU

CITY           SKY/WX    TMP DP  RH WIND       PRES   REMARKS
ABILENE        SUNNY     75  61  61 SW10      30.18R
BIG SPRING     SUNNY     65  63  94 S6        30.22S
BROWNWOOD      SUNNY     75  61  60 SW5       30.19S
JUNCTION       SUNNY     72  58  61 SW6       30.20S
MIDLAND        SUNNY     73  60  63 SW8       30.20R
ODESSA         SUNNY     72  61  68 SW7       30.21S
SAN ANGELO     SUNNY     73  61  65 SW5       30.19S
SONORA         SUNNY     72  59  64 S9        30.26S
SWEETWATER     SUNNY     72  62  72 SW14      30.22R
WINK           CLOUDY    61  32  33 SE3       30.20R
$$

TXZ055-058-074-075-080-082-241700-
FAR WEST/SOUTHWEST MOUNTAINS/TRANS PECOS

CITY           SKY/WX    TMP DP  RH WIND       PRES   REMARKS
ALPINE         SUNNY     73  54  52 W9        30.35S
DRYDEN           N/A     67  64  90 W7        30.19S
EL PASO        SUNNY     66  52  60 CALM      30.27R
FORT STOCKTON  SUNNY     75  59  57 W9        30.22R
GUADALUPE PASS SUNNY     62  50  64 SW13      30.35R
MARFA          SUNNY     66  57  72 CALM      30.35R
PECOS          PTSUNNY   60  59  97 CALM      30.21S FOG
PRESIDIO       FAIR      73  58  60 E6        30.25R
$$

TXZ014-016-019-021>030-083-241700
TEXAS TECH WEST TEXAS MESONET/TEXAS PANHANDLE/NORTHERN SOUTH PLAINS

CITY           SKY/WX    TMP DP  RH WIND       PRES   REMARKS
ABERNATHY 5ENE   N/A     70  60  69 SW10      30.20S
AMARILLO 9NNE    N/A     67  51  57 W3        30.17S
AMARILLO 7SSE    N/A     68  54  62 W3        30.19S
AMHERST 1NE      N/A     72  55  55 SW9       30.20R
BOOTLEG 11WNW    N/A     70  43  37 W9        30.24R
CANADIAN 6E      N/A     65  60  84 W5        30.11S
CAPROCK CYN SP   N/A     76  56  50 N1        30.15S
CHILDRESS 2NNE   N/A     76  58  52 SW8       30.12S
CLARENDON 2WSW   N/A     71  56  58 W8        30.14R
DIMMITT 2NE      N/A     68  52  55 SW9       30.19S
FLOYDADA 2NNE    N/A     68  60  74 SW12      30.18S
FRIONA 2NE       N/A     68  54  61 W7        30.21S
GOODLETT 3W      N/A     76  59  55 SW7       30.10F
HART 3N          N/A     68  55  63 W8        30.19S
HEREFORD 2NW     N/A     68  49  51 W6        30.20R
MCLEAN 1E        N/A     70  58  64 W7        30.12S
MEMPHIS 1NE      N/A     68  59  71 S7        30.12F
MULESHOE 2SSW    N/A     69  49  48 W12       30.21R
OLTON 6S         N/A     69  57  65 W6        30.19S
PALO DURO SP     N/A     69  54  60 W5        30.19R
PAMPA 2E         N/A     69  55  60 W6        30.15R
PLAINVIEW 1S     N/A     68  58  71 SW7       30.18S
SILVERTON 7ESE   N/A     72  57  60 SW13      30.16F
TULIA 2ENE       N/A     69  57  64 W8        30.18R
TURKEY 2WSW      N/A     74  58  58 SW15      30.13S
UMBARGER 3NNE    N/A     66  55  68 SW6       30.20R
$$

TXZ033>036-039>041-045>048-241700
TEXAS TECH WEST TEXAS MESONET/SOUTH PLAINS

CITY           SKY/WX    TMP DP  RH WIND       PRES   REMARKS
AIKEN 3WSW       N/A     68  58  71 SW12      30.20S
ANDREWS 2NE      N/A     74  58  58 S8        30.21S
ANTON 6SSW       N/A     72  59  62 SW12      30.19F
BROWNFIELD 2S    N/A     71  60  70 SW10      30.21R
DENVR CTY 7WNW   N/A     68  58  69 SW7       30.22S
GAIL 2ESE        N/A     63  61  91 SW5       30.19S
LAMESA 2SE       N/A     66  64  93 SW8       30.21S
LEVELLAND 4S     N/A     73  57  58 S10       30.20S
LUBBOCK 3WNW     N/A     73  59  61 SW9       30.19S
MORTON 1ENE      N/A     74  53  48 SW9       30.21R
ODONNELL 1N      N/A     71  59  65 SW9       30.20S
PLAINS 3N        N/A     72  57  59 SW8       30.22S
RALLS 1SE        N/A     71  61  70 SW9       30.20S
REESE CENTER     N/A     71  59  64 SW14      30.19F
SEMINOLE 2NNE    N/A     71  60  67 SW7       30.22R
SLATON 2NE       N/A     71  60  68 SW12      30.19S
SNYDER 3E        N/A     63  62  97 S7        30.20R
SUNDOWN 8SW      N/A     73  58  57 SW10      30.21S
TAHOKA 3NNE      N/A     73  60  65 SW13      30.19S
WOLFFORTH 6SSW   N/A     71  61  68 SW12      30.20S
$$

TXZ031-032-036>038-042>044-241700-
TEXAS TECH WEST TEXAS MESONET/ROLLING PLAINS

CITY           SKY/WX    TMP DP  RH WIND       PRES   REMARKS
ASPERMONT 3NE    N/A     73  64  73 SW12      30.16S
FLUVANNA 3WNW    N/A     64  61  88 S9        30.20R
GRAHAM 5SSW      N/A     70  60  70 S7        30.19S
GUTHRIE 10WSW    N/A     73  61  65 SW10      30.15R
HASKELL 1NW      N/A     73  60  65 SW12      30.15S
JAYTON 1SSE      N/A     69  63  79 SW7       30.17S
KNOX CITY 3NW    N/A     72  61  68 SW8       30.15S
LK A HENRY 1NW   N/A     71  62  73 SW8       30.17S
NORTHFIELD 1S    N/A     73  60  63 SW6       30.13S
ODELL 4ENE       N/A     75  63  65 S8        30.11S
PADUCAH 10SW     N/A     74  62  64 SW5       30.14S
POST 1NE         N/A     72  60  65 SW8       30.18S
RRING SPRGS 3N   N/A     73  61  65 SW13      30.16S
SEYMOUR 3NW      N/A     73  62  67 NW9       30.14S
SPUR 1W          N/A     70  60  70 W8        30.16R
WEINERT 2NNE     N/A     74  63  67 SW9       30.15S
WHITE RVR 6NE    N/A     73  61  64 SW8       30.17S
$$

TXZ052-054-060>062-072-078-127-140-154-169-241700-
TEXAS TECH WEST TEXAS MESONET/PERMIAN BASIN/
CONCHO VALLEY/BIG COUNTRY/EDWARDS PLATEAU

CITY           SKY/WX    TMP DP  RH WIND       PRES   REMARKS
COYANOSA 2N      N/A     71  61  69 W5        30.21R
JUNCTION 1SSW    N/A     74  60  62 SW5       30.21S
MERTZON 3NNE     N/A     73  61  65 S10       30.21S
SAN ANGELO 7NW   N/A     72  59  62 S9        30.20S
STRLNG CT 4WSW   N/A     74  61  63 S9        30.21S
ST LAWRNCE 5SW   N/A     72  59  64 S9        30.21R
SWEETWATR 11SW   N/A     73  62  68 SW10      30.21S
WALL 1E          N/A     74  59  59 SW14      30.20S
$$

TXZ055-058-074-075-080-082-241700-
TEXAS TECH WEST TEXAS MESONET/FAR WEST/SOUTHWEST MOUNTAINS/TRANS PECOS

CITY           SKY/WX    TMP DP  RH WIND       PRES   REMARKS
PRSMN GAP BBNP   N/A     68  62  82 SW2       30.24S
GUADLPE MTN NP   N/A     68  50  51 SW9       30.34R
$$



USA.gov is the U.S. government's official web portal to all federal, state and local government web resources and services.